Location: Terre Du Lac
(37.9120°N, 90.6250°W)
Time: 13:22:20
(UTC-05:00)

Hubble Space Telescope - Visible Passes

Search period start: 28 July 2016 00:00
Search period end: 07 August 2016 00:00
Orbit: 539 x 543 km, 28.5° (Epoch: 28 July)

Date Brightness Start Highest point End Pass type
(mag) Time Alt. Az. Time Alt. Az. Time Alt. Az.
01 Aug 3.1 05:05:07 10° S 05:06:21 11° SSE 05:07:34 10° SE visible
02 Aug 2.9 04:54:52 11° S 04:56:30 13° SSE 04:58:29 10° SE visible
03 Aug 2.7 04:45:37 14° S 04:46:38 15° SSE 04:49:04 10° SE visible
04 Aug 2.6 04:36:22 17° S 04:36:48 17° SSE 04:39:32 10° SE visible
05 Aug 2.5 04:27:09 19° SSE 04:27:09 19° SSE 04:29:55 10° SE visible
06 Aug 2.5 04:17:58 19° SSE 04:17:58 19° SSE 04:20:13 10° SE visible
